Location: Ernsee
(50.8780°N, 12.0389°E)
Time: 09:14:55
(UTC+00:00)

CZ-4B R/B - Pass Details

Date: 20 January 2020
Orbit: 809 x 882 km, 99.1° (Epoch: 16 February)

Event Time Altitude Azimuth Distance (km) Brightness Sun altitude
Rises 06:18:13 0° 10° (N) 3,478 6.3 -7.2°
Reaches altitude 10° 06:20:51 10° 1° (N) 2,527 5.5 -6.9°
Maximum altitude 06:25:45 32° 300° (WNW) 1,435 3.9 -6.2°
Drops below altitude 10° 06:30:33 10° 239° (WSW) 2,473 5.3 -5.5°
Sets 06:33:06 0° 230° (SW) 3,393 6.1 -5.1°
